Regional Weather Roundup
Issued by NWS

Home | Current Version | Previous Version | Text Only | Print | Product List | Glossary On
Versions: 1 2 3 4 5 6 7 8 9 10 11 12 13 14 15 16 17 18 19 20 21 22 23 24 25 26 27 28 29 30 31 32 33 34 35 36 37 38 39 40 41 42 43 44 45 46 47 48 49 50
000
ASUS43 KMPX 240510
RWRMN
WEATHER ROUNDUP FOR MINNESOTA
NATIONAL WEATHER SERVICE TWIN CITIES/CHANHASSEN MN
1100 PM CST TUE JAN 23 2018


NOTE: "FAIR" INDICATES FEW OR NO CLOUDS BELOW 12,000 FEET WITH NO
SIGNIFICANT WEATHER AND/OR OBSTRUCTIONS TO VISIBILITY. N/A MEANS
CURRENT SKY AND/OR WEATHER CONDITIONS ARE NOT AVAILABLE.

MNZ060>063-068>070-240600-
   Twin Cities Metro

CITY           SKY/WX    TMP DP  RH WIND       PRES   REMARKS
TWIN CITIES    MOCLDY    18  13  80 SE3       30.19R
ST PAUL        FAIR      17  13  84 S3        30.21R
CRYSTAL        FAIR      16  11  80 CALM      30.17S
BLAINE         FAIR      19  14  79 SE3       30.18R
LAKEVILLE      FAIR      14  12  92 CALM      30.18S
EDEN PRAIRIE   FAIR      19  13  77 SE3       30.17R
SOUTH ST PAUL  FAIR      15  12  90 CALM      30.19S
LAKE ELMO      FAIR      10   9  92 CALM      30.20R
$$
MNZ001>005-007-008-013>017-022>024-027-028-240600-
   Northwest Minnesota

CITY           SKY/WX    TMP DP  RH WIND       PRES   REMARKS
BEMIDJI        CLOUDY    18  16  93 CALM      30.12S
HALLOCK        CLOUDY    23  19  86 SW6       30.12S WCI  16
ROSEAU         FLURRIES  19  16  86 S6        30.11S WCI  11
WARROAD        LGT SNOW  18  14  86 CALM      30.11S
THIEF RVR FALL CLOUDY    20  18  92 NW6       30.13S WCI  12
CROOKSTON      MOCLDY    21  19  93 CALM      30.15S
FOSSTON        CLOUDY    19  18  93 W10       30.13S WCI   8
DETROIT LAKES  CLOUDY    23  21  93 CALM      30.14S FOG
MOORHEAD       CLOUDY    21  18  86 NW13      30.18S WCI   9
PARK RAPIDS    CLOUDY    19  15  84 NW3       30.12S FOG
MAHNOMEN       CLOUDY    21  19  93 W12       30.13S WCI   9
$$
MNZ006-009>011-018-025>026-240600-
   North Central Minnesota

CITY           SKY/WX    TMP DP  RH WIND       PRES   REMARKS
BAUDETTE       CLOUDY    14  10  84 SE5       30.11S WCI   6
FLAG ISLAND    FLURRIES  16   9  73 S7        30.11S WCI   6
INTL FALLS     CLOUDY    10  -2  58 SE3       30.13R
WASKISH        CLOUDY    12   9  85 CALM      30.12S
BIG FORK       CLOUDY     9   3  78 CALM      30.13R
LONGVILLE      MOCLDY     1   0  92 CALM      30.14R
GRAND RAPIDS   FAIR       3  -1  83 S3        30.15R
CRANE LAKE     CLOUDY     3   0  85 CALM      30.17S
ORR            CLOUDY    -2  -8  78 CALM      30.10S
COOK           MOCLDY    -4  -8  84 CALM      30.13S
WALKER         CLOUDY    12   6  78 CALM      30.13S
$$
MNZ012-019>021-037-240600-
   Northeast Minnesota

CITY           SKY/WX    TMP DP  RH WIND       PRES   REMARKS
DULUTH         FAIR       8   0  69 CALM      30.13R
HIBBING        MOCLDY    -5  -7  91 CALM      30.12S
EVELETH        FAIR      -3  -8  78 CALM      30.13F
DULUTH HARBOR  MOCLDY    16   9  73 CALM      30.19S
TWO HARBORS    CLOUDY    16   1  53 N5        30.14R WCI   9
SILVER BAY     CLOUDY    10  -2  56 CALM      30.14S
GRAND MARAIS     N/A     11  -6  46 NE5       30.22R WCI   3
G MARAIS ARPRT CLOUDY     3 -11  51 CALM      30.10R
$$
MNZ029>031-032-039>041-046>048-054>057-064-240600-
   West Central Minnesota

CITY           SKY/WX    TMP DP  RH WIND       PRES   REMARKS
FERGUS FALLS   CLOUDY    21  21 100 NW12      30.16S WCI   9
MORRIS         CLOUDY    25  21  86 CALM      30.16S
ALEXANDRIA     CLOUDY   N/A N/A N/A MISG      30.15R
ELBOW LAKE     CLOUDY    22  21  93 NW3       30.16S
WADENA         CLOUDY    19  19 100 CALM      30.13F FOG
GLENWOOD       CLOUDY    21  19  93 NW6       30.15S WCI  14
APPLETON       CLOUDY    27  21  80 CALM      30.18S
BENSON         CLOUDY    25  21  86 N9        30.18F WCI  15
ORTONVILLE     PTCLDY    25  19  80 CALM      30.17S
MADISON        CLOUDY    28  25  86 CALM      30.18S
WILLMAR        CLOUDY    25  19  80 NW8       30.20R WCI  16
$$
MNZ033>034-036-042>043-049>051-058-059-240600-
   Central Minnesota

CITY           SKY/WX    TMP DP  RH WIND       PRES   REMARKS
ST CLOUD       FAIR      16  12  84 NW5       30.17R WCI   9
SAUK CENTRE      N/A     21  18  89 W9        30.16S WCI  11
PAYNESVILLE    CLOUDY    20  19  93 CALM      30.17S
AITKIN         FAIR       3   0  85 CALM      30.13S
PINE RIVER     CLOUDY     7   3  85 CALM      30.17S
BRAINERD       FAIR       8   3  80 CALM      30.16R
STAPLES        CLOUDY    18  16  93 W6        30.15R WCI   9
LONG PRAIRIE   CLOUDY    21  19  93 SW8       30.16R WCI  12
LITTLE FALLS     N/A    N/A N/A N/A CALM        N/A
LITCHFIELD     FAIR      21  19  93 NW5       30.18R WCI  15
BUFFALO        FAIR      17  12  81 CALM      30.19R
MAPLE LAKE     FAIR      21  17  83 MISG      30.18R
HUTCHINSON     FAIR      20  18  89 W3        30.19R
$$
MNZ037-044-045-052-053-240600-
   East Central Minnesota

CITY           SKY/WX    TMP DP  RH WIND       PRES   REMARKS
PRINCETON      FAIR      16  12  86 CALM      30.17R
MORA           FAIR      12   9  85 CALM      30.19R
CAMBRIDGE      FAIR      16   9  73 CALM      30.18S
RUSH CITY      FAIR      14   8  75 S3        30.19R
MOOSE LAKE     FAIR       9   3  78 CALM      30.15R
HINCKLEY       FAIR      12   9  85 CALM      30.17R
CLOQUET        FAIR       7   0  72 CALM      30.14R
MCGREGOR       FAIR       9   7  92 CALM      30.14S
$$
MNZ071>073-080-081-089-090-097-098-240600-
   Southwest Minnesota

CITY           SKY/WX    TMP DP  RH WIND       PRES   REMARKS
MONTEVIDEO     CLOUDY    25  19  80 N6        30.18S WCI  18
GRANITE FALLS  CLOUDY    27  23  84 NW8       30.20S WCI  19
CANBY          MOCLDY    23  21  93 SW3       30.19R
MARSHALL       CLOUDY    25  22  88 NW9       30.19R WCI  15
REDWOOD FALLS  CLOUDY    25  21  85 W6        30.18S WCI  18
OLIVIA         CLOUDY    27  21  80 NW3       30.18R
PIPESTONE      CLOUDY    23  21  93 NW9       30.16R WCI  13
WINDOM         CLOUDY    23  10  58 W8        30.17R WCI  14
WORTHINGTON    CLOUDY    22  21  96 NW9       30.17R FOG     WCI  12
JACKSON        CLOUDY    23  21  93 W8        30.18R WCI  14
TRACY          CLOUDY    25  24  94 NW6       30.17R FOG     WCI  18
SLAYTON        CLOUDY    24  22  94 NW8       30.16S FOG     WCI  14
$$
MNZ065>067-074>077-082>085-091>093-240600-
   South Central Minnesota

CITY           SKY/WX    TMP DP  RH WIND       PRES   REMARKS
MANKATO        FAIR      18  16  92 W3        30.19R
NEW ULM        CLOUDY    16  14  93 W5        30.19R WCI   9
ST JAMES       CLOUDY    21  19  93 W7        30.20R WCI  13
FAIRMONT       CLOUDY    19  17  92 W6        30.20R WCI  11
FARIBAULT      FAIR      14  12  92 CALM      30.18R
OWATONNA       FAIR      16  12  86 CALM      30.17S
WASECA         FAIR      14  12  92 CALM      30.19S
ALBERT LEA     FAIR      19  16  86 CALM      30.17S
$$
MNZ078>079-086>088-094>096-240600-
   Southeast Minnesota

CITY           SKY/WX    TMP DP  RH WIND       PRES   REMARKS
ROCHESTER      CLOUDY    15  13  91 W6        30.16R WCI   6
RED WING       FAIR      12   7  79 CALM      30.20R
STANTON        FAIR      11   8  87 CALM      30.18R
DODGE CENTER   FAIR      12  10  92 W5        30.16R WCI   4
WINONA         FAIR      18  16  93 CALM      30.20R
AUSTIN         FAIR      18  16  93 CALM      30.17S
PRESTON        MOCLDY    15  12  88 W3        30.17R
$$
ABBREVIATIONS USED IN REMARKS
   TC - TEMPERATURES IN CELSIUS
  WCI - WIND CHILL INDEX
   HX - HEAT INDEX
  VSB - VISIBILITY
$$




USA.gov is the U.S. government's official web portal to all federal, state and local government web resources and services.